Hourly Data Report for December 03, 2002

TORONTO CITY
ONTARIO

43°40'00.000" N
79°24'00.000" W
112.50 m
6158355
71508
XTO

Download Data

Hourly Data (December 2002)
Hourly Data Report for December 3, 2002
TIME
LST
Temp Definition
°C
Dew Point Definition
°C
Rel Hum Definition
%
Precip. Amount Definition
mm

Wind Dir Definition
10's deg

Wind Spd Definition
km/h
Visibility Definition
km
Stn Press Definition
kPa
Hmdx Definition


Wind Chill Definition


Weather Definition


00:00 -12.8 -17.4 68   LegendMM LegendMM LegendMM 100.99     LegendNANA
01:00 -13.0 -17.4 70   LegendMM LegendMM LegendMM 101.05     LegendNANA
02:00 -13.7 -17.7 72   LegendMM LegendMM LegendMM 101.14     LegendNANA
03:00 -13.9 -17.9 72   LegendMM LegendMM LegendMM 101.23     LegendNANA
04:00 -14.4 -18.4 72   LegendMM LegendMM LegendMM 101.30     LegendNANA
05:00 -14.3 -18.7 69   LegendMM LegendMM LegendMM 101.38     LegendNANA
06:00 -14.6 -19.5 66   LegendMM LegendMM LegendMM 101.49     LegendNANA
07:00 -14.7 -19.7 66   LegendMM LegendMM LegendMM 101.57     LegendNANA
08:00 -14.7 -20.3 62   LegendMM LegendMM LegendMM 101.66     LegendNANA
09:00 -13.5 -19.7 60   LegendMM LegendMM LegendMM 101.74     LegendNANA
10:00 -11.2 -17.7 59   LegendMM LegendMM LegendMM 101.80     LegendNANA
11:00 -9.8 -16.8 57   LegendMM LegendMM LegendMM 101.80     LegendNANA
12:00 -8.1 -15.4 56   LegendMM LegendMM LegendMM 101.77     LegendNANA
13:00 -6.1 -14.2 53   LegendMM LegendMM LegendMM 101.74     LegendNANA
14:00 -5.8 -13.7 54   LegendMM LegendMM LegendMM 101.75     LegendNANA
15:00 -5.1 -12.6 56   LegendMM LegendMM LegendMM 101.76     LegendNANA
16:00 -4.7 -12.0 57   LegendMM LegendMM LegendMM 101.75     LegendNANA
17:00 -5.1 -11.5 61   LegendMM LegendMM LegendMM 101.79     LegendNANA
18:00 -5.7 -11.7 63   LegendMM LegendMM LegendMM 101.83     LegendNANA
19:00 -6.1 -11.9 63   LegendMM LegendMM LegendMM 101.87     LegendNANA
20:00 -6.7 -11.9 66   LegendMM LegendMM LegendMM 101.89     LegendNANA
21:00 -7.7 -12.0 71   LegendMM LegendMM LegendMM 101.92     LegendNANA
22:00 -7.8 -11.5 75   LegendMM LegendMM LegendMM 101.90     LegendNANA
23:00 -7.8 -11.1 77   LegendMM LegendMM LegendMM 101.88     LegendNANA

Notes on Data Quality.

Legend

  • E = Estimated
  • M = Missing
  • NA = Not Available*
  • [empty] = Indicates an unobserved value
Date modified: